Flag for Canada Weather past 2 weeks in Stonewall, Manitoba, Canada

Now
79 °F

Partly sunny.


Feels Like: 80 °F
Forecast: N/A
Wind: 10 mph from Southwest

Location: Winnipeg Int. Airportman.

Current Time: Aug 1, 2015 at 6:17:52 PM

Latest Report: Aug 1, 2015 at 6:00 PM


Visibility: 15 mi

Pressure: 29.70 "Hg

Humidity: 51%

Dew point: 59 °F

Location of StonewallLocation

Historic Weather in Stonewall — Graph

°F

Stonewall temperature yesterday

Maximum temperature yesterday: 75 °F (at 2:00 PM)
Minimum temperature yesterday: 55 °F (at 1:00 AM)
Average temperature yesterday: 65 °F

Past Weeks' High & Low Weather Summary

 TemperatureHumidityPressure
High88 °F (Jul 26, 3:00 PM)100% (Jul 18, 7:00 AM)30.01 "Hg (Jul 18, 7:00 AM)
Low48 °F (Jul 21, 5:00 AM)35% (Jul 25, 3:00 PM)29.28 "Hg (Jul 29, 12:00 AM)
Average69 °F75%29.78 "Hg
* Reported Jul 17 5:00 PM — Aug 1 5:00 PM, Stonewall, Weather by CustomWeather, © 2015

Note: Actual official high and low records may vary slightly from our data, if they occured in-between our weather recording intervals... More about our weather records

Advertising

Stonewall weather history for previous 24 hours

 ConditionsComfort  
Time TempWeatherWind HumidityBarometerVisibility
5:00 PM
Sat, Aug 1
81 °FPartly sunny.8 mph42%29.72 "Hg15 mi
4:00 PM81 °FScattered clouds.13 mph45%29.74 "Hg15 mi
3:00 PM81 °FScattered clouds.13 mph42%29.77 "Hg15 mi
2:00 PM81 °FScattered clouds.15 mph42%29.79 "Hg15 mi
1:00 PM79 °FScattered clouds.12 mph45%29.82 "Hg15 mi
12:00 PM77 °FScattered clouds.13 mph47%29.83 "Hg15 mi
11:00 AM73 °FScattered clouds.13 mph53%29.85 "Hg15 mi
10:00 AM72 °FPassing clouds.9 mph61%29.86 "Hg15 mi
9:00 AM66 °FPassing clouds.10 mph68%29.88 "Hg15 mi
8:00 AM63 °FPassing clouds.9 mph73%29.89 "Hg15 mi
7:00 AM57 °FPassing clouds.9 mph82%29.90 "Hg15 mi
6:00 AM54 °FPassing clouds.9 mph94%29.91 "Hg15 mi
5:00 AM55 °FPassing clouds.8 mph88%29.92 "Hg15 mi
4:00 AM55 °FClear.9 mph94%29.92 "Hg15 mi
3:00 AM57 °FClear.10 mph88%29.92 "Hg15 mi
2:00 AM59 °FClear.8 mph88%29.93 "Hg15 mi
1:00 AM57 °FClear.7 mph94%29.94 "Hg15 mi
12:00 AM59 °FClear.8 mph88%29.94 "Hg15 mi
11:00 PM
Fri, Jul 31
59 °FClear.7 mph88%29.95 "Hg15 mi
10:00 PM61 °FPassing clouds.6 mph88%29.94 "Hg15 mi
9:00 PM63 °FPassing clouds.6 mph88%29.94 "Hg15 mi
8:00 PM72 °FPassing clouds.6 mph65%29.94 "Hg15 mi
7:00 PM75 °FPassing clouds.10 mph50%29.94 "Hg15 mi
6:00 PM75 °FPassing clouds.14 mph47%29.96 "Hg15 mi
Weather by CustomWeather, © 2015

See weather overviewHow to use our weather pages